Terug naar catalogus

STARLINK-36600

ActiefCommunicatieVLEO
NORAD 67623·PAYLOAD·🇺🇸 United States

Gelanceerd Jan 30, 2026 vanaf Cape Canaveral Space Force Station

Loading…

Volgende Passages (komende 24 uur)

TLE

VersSource: CelesTrak SupGP

Epoch: Sep 14, 2026, 21:29 UTC

1 67623C 26020G   26257.89562500 -.00047959  00000+0 -17370-2 0  2573
2 67623  42.9989 151.4228 0001325 266.5802 259.7443 15.27602438    13

Volg STARLINK-36600 in realtime met AllMySat

Download on the App Store